{"data":{"norad_id":55988,"epoch":"2026-05-25T00:12:56.863008Z","epoch_age_seconds":64415,"freshness":"FRESH","line1":"1 55988U 23042C   26145.00899147  .00000233  00000+0  18003-4 0  9995","line2":"2 55988  43.0028 352.6864 0001199 270.1699  89.9015 15.27576138174494","mean_motion":15.27576138,"eccentricity":0.0001199,"inclination_deg":43.0028,"raan_deg":352.6864,"arg_perigee_deg":270.1699,"mean_anomaly_deg":89.9015,"bstar":1.8003e-5,"rev_number":17449,"period_min":94.266987037735,"perigee_km":482.2380026819,"apogee_km":483.88331788083,"semimajor_km":6861.1976602814,"source":"CELESTRAK","updated_at":"2026-05-25T13:38:17.922008Z"}}